User: anonymous   Login
Location: Seattle
(47.6064°N, 122.3308°W)
Time: 14:16:56
(UTC-08:00)
Language:

RISING 2 - Orbit

View from above orbital plane
View from above orbital plane
View from above satellite
View from above satellite

Ground track
Ground track

The orbit data is extracted from the following two-line orbital elements,

1 39769U 14029D   23335.41301193  .00002825  00000-0  34449-3 0  9992
2 39769  97.7589  49.9010 0005231 130.0235 230.1440 14.84114827515172
Epoch (UTC): 01 December 2023 09:54:44
Eccentricity: 0.0005231
inclination: 97.7589°
perigee height: 613 km
apogee height: 620 km
right ascension of ascending node: 49.9010°
argument of perigee: 130.0235°
revolutions per day: 14.84114827
mean anomaly at epoch: 230.1440°
orbit number at epoch: 51517

The dashed part of the orbit path shows where the satellite is in the earth's shadow,  

DLR